STARLINK-3146 (49414 NORAD) Tracking and Keplerian Element Data

This shows tracking and keplerian element data for the satellite.

Feedback or suggestion? Click here.




ElementValue
Catalog49414
NameSTARLINK-3146
Epoch Orbit366
Epoch Day15.91668981
Epoch Year2022
RAAN185.3626
Inclination53.2174
Eccentricity0.0001401
Argument of Perigee56.4042
Mean Anonmoly279.4815
Mean Motion15.2422885
Decay Rate-0.00655088
L11 49414U 21104G 22015.91668981 -.00655088 00000+0 -28568-1 0 9991
L22 49414 53.2174 185.3626 0001401 56.4042 279.4815 15.24228850 3662

Live tracking and technical data element details for STARLINK-3146 (NORAD 49414). STARLINK-3146 can be tracked NOW for your location showing map with azimuth and elevation plus other details from your city location.

Track the satellite on the map from your city or location and see movement details for azimuth, elevation, latitude, longitude, range, height, and movement on the map or in text.







IsCatalogInMostPopularTable: catalog: 49414, numindb: 5
Update: records affected: 1



GetName: 49414 STARLINK-3146

Hit Count: updated at: Thu, 20 Jan 2022 17:00:43 GMT